User: anonymous   Login
Location: *
(38.3914°N, 75.0697°W)
Time: 08:45:26
(UTC+00:00)
Language:

AAUSAT CUBESAT 2 - Orbit

View from above orbital plane
View from above orbital plane
View from above satellite
View from above satellite

Ground track
Ground track

The orbit data is extracted from the following two-line orbital elements,

1 32788U 08021F   21128.94790270  .00000695  00000-0  67533-4 0  9999
2 32788  97.5044 125.2649 0013044  48.4256 311.8081 14.95537528707958
Epoch (UTC): 08 May 2021 22:44:58
Eccentricity: 0.0013044
inclination: 97.5044°
perigee height: 571 km
apogee height: 590 km
right ascension of ascending node: 125.2649°
argument of perigee: 48.4256°
revolutions per day: 14.95537528
mean anomaly at epoch: 311.8081°
orbit number at epoch: 70795

The dashed part of the orbit path shows where the satellite is in the earth's shadow,  

DLR